User: anonymous   Login
Location: Gleizolles
(44.4833°N, 6.7667°E)
Time: 12:49:06
(UTC+00:00)
Language:

AIST 2D - Orbit

View from above orbital plane
View from above orbital plane
View from above satellite
View from above satellite

Ground track
Ground track

The orbit data is extracted from the following two-line orbital elements,

1 41465U 16026B   22342.06115034  .00019899  00000-0  39946-3 0  9998
2 41465  97.0275 212.8180 0006954 209.8664 288.3868 15.46679163370318
Epoch (UTC): 08 December 2022 01:28:03
Eccentricity: 0.0006954
inclination: 97.0275°
perigee height: 422 km
apogee height: 431 km
right ascension of ascending node: 212.8180°
argument of perigee: 209.8664°
revolutions per day: 15.46679163
mean anomaly at epoch: 288.3868°
orbit number at epoch: 37031

The dashed part of the orbit path shows where the satellite is in the earth's shadow,  

DLR